Wind_Speed
47 54 57 56 57 61 65 67 68 72 73 76 80 89 95 104 108 112 117 123 126 128 130 130 128 125 123 118 112 107 103 101 96 89 84 83 78 76 72 66 61 62 59 56 51 48 45 57 52 52 56 54 54 52
43 46 48 50 54 59 62 62 64 66 68 71 76 78 80 84 91 96 100 103 106 108 113 111 110 107 101 96 92 88 85 81 77 74 72 72 70 64 62 57 56 57 55 52 50 48 50 50 49 50 55 48 53 47
37 39 42 46 49 53 56 58 60 62 64 65 65 67 70 74 75 77 79 82 85 87 89 88 83 79 77 75 73 72 72 69 69 67 63 59 58 55 52 51 52 55 53 48 46 49 46 47 46 47 50 50 49 49
33 36 40 42 45 48 50 52 54 55 56 57 58 60 63 64 65 68 69 71 72 71 72 69 65 63 65 65 64 63 62 59 58 54 52 51 49 46 46 47 50 55 48 42 44 46 45 46 44 43 46 48 51 48
30 32 35 37 39 40 42 43 45 47 48 50 52 54 55 57 58 59 59 60 59 60 62 60 58 57 56 55 54 53 51 48 46 44 43 42 40 40 45 47 51 45 38 36 39 40 42 42 38 41 41 41 39 40
24 26 28 31 33 34 36 38 40 42 44 46 47 48 49 49 49 50 51 51 51 53 53 50 48 47 47 46 45 44 42 41 40 38 37 36 37 39 42 42 43 31 23 31 35 34 34 35 35 35 36 36 35 35
18 20 22 24 26 28 30 33 35 36 37 39 39 39 40 41 42 42 43 42 42 42 42 41 39 37 38 37 37 36 35 35 34 32 32 33 34 35 35 37 30 24 30 36 36 34 34 35 32 32 34 34 33 34
13 15 17 20 23 25 27 28 29 30 31 31 31 31 31 32 33 33 33 33 33 34 33 33 32 31 30 29 29 29 29 28 28 27 26 26 28 27 26 26 23 23 31 31 29 27 27 26 26 25 25 26 28 28
10 12 15 17 18 18 20 21 21 22 23 24 25 25 26 27 26 26 26 26 27 27 27 27 26 26 26 25 24 24 24 23 23 22 22 22 22 22 21 22 22 22 24 26 24 24 23 21 21 23 24 23 25 25
8 10 11 12 13 15 15 16 18 19 19 19 18 19 19 20 19 20 21 23 23 24 24 23 23 23 23 21 20 19 20 20 21 19 18 18 18 18 19 21 21 21 22 23 22 21 20 21 19 20 20 20 19 19
4 5 7 8 9 11 12 14 14 13 12 13 12 13 15 15 16 17 19 18 19 20 19 19 19 18 17 18 18 17 17 18 17 17 17 16 16 16 17 18 21 20 20 19 19 18 18 18 17 17 17 17 18 18
4 4 5 5 6 7 7 7 7 8 9 9 10 11 12 12 12 13 14 15 14 14 15 15 15 14 13 14 16 15 13 14 15 15 15 14 14 14 15 15 16 16 15 16 16 15 16 15 14 15 16 15 15 15
8 5 4 4 4 4 5 6 6 6 7 8 8 9 9 9 8 8 8 8 7 7 8 11 11 10 10 10 12 11 12 13 13 12 11 13 13 14 15 15 14 13 13 14 14 13 12 13 14 14 13 12 12 12
11 8 7 6 5 4 4 3 2 3 4 6 6 6 4 5 6 7 7 6 6 6 5 5 6 6 6 6 9 8 10 11 11 10 10 10 11 12 14 14 14 14 13 13 13 11 11 13 14 13 11 8 7 8
11 10 7 6 5 5 4 4 3 3 3 3 3 4 5 6 6 7 8 7 6 6 5 4 3 2 3 4 6 8 9 8 9 7 6 7 8 11 13 15 15 15 13 12 11 11 12 13 13 11 10 9 10 12
11 9 7 6 7 6 6 5 4 4 3 3 3 4 4 3 4 5 5 6 7 8 8 5 3 4 4 6 9 8 8 7 9 8 6 6 7 9 11 13 14 15 14 12 11 10 12 12 11 10 10 12 13 12
14 11 8 7 7 6 5 4 2 1 2 2 2 2 2 1 3 3 2 4 5 6 5 4 4 4 6 7 8 8 10 9 9 8 6 7 8 9 10 11 12 13 13 12 11 10 11 12 11 12 13 13 14 14
18 15 12 10 8 7 7 4 4 4 4 4 4 4 3 4 5 3 4 5 3 3 3 3 4 4 4 6 10 10 10 10 9 7 6 7 8 8 9 10 10 10 11 11 10 10 11 12 13 13 13 15 19 20
18 17 15 13 11 10 9 8 8 8 6 5 4 5 6 6 7 5 5 5 4 4 3 3 3 4 4 5 6 7 9 10 7 6 6 5 6 6 7 9 9 10 8 8 9 9 10 12 13 14 16 20 21 20
18 17 15 14 13 12 11 11 12 11 10 10 8 9 9 8 9 8 7 7 7 6 5 4 3 3 3 5 7 8 9 9 8 8 7 7 7 7 8 8 9 9 10 11 10 10 10 13 15 18 21 21 20 17
18 18 17 17 15 14 14 14 14 13 14 12 13 13 12 11 12 12 11 10 10 10 9 7 6 6 7 7 7 6 5 6 6 6 7 7 7 7 8 8 8 10 10 10 11 12 14 17 20 21 20 18 16 15
20 19 18 18 18 17 15 15 16 14 15 15 16 17 16 15 16 15 16 16 13 13 12 11 11 11 10 10 9 8 7 7 7 7 7 8 8 8 8 8 8 9 8 10 12 13 16 17 17 16 15 15 16 16
22 21 21 21 20 19 18 17 20 17 16 15 17 18 17 18 20 20 19 21 19 16 15 15 14 14 14 13 13 12 12 11 12 11 11 11 11 11 11 11 11 12 13 13 14 15 15 16 17 17 18 18 19 20
24 23 22 22 22 22 21 19 22 21 20 20 19 19 19 18 18 21 22 25 24 24 21 19 19 19 17 17 18 18 18 18 17 17 17 17 16 16 16 16 17 17 18 18 18 18 18 19 20 21 22 23 24 26
28 24 24 24 23 22 23 22 23 23 24 23 22 21 20 20 19 18 20 24 25 27 28 27 23 23 23 22 21 22 22 24 23 23 23 23 22 22 23 23 23 23 23 24 24 25 26 26 27 28 29 30 31 32
29 27 25 25 25 25 25 25 23 23 24 25 26 23 24 22 20 20 23 21 20 22 25 26 27 27 27 28 28 27 26 26 27 28 28 28 29 29 29 29 30 30 30 30 30 31 32 33 34 35 36 37 37 38
30 28 26 23 25 28 28 26 25 24 24 25 27 26 26 25 21 22 27 23 21 23 24 25 26 27 28 29 29 30 31 30 29 30 31 32 33 35 35 35 35 37 38 38 37 37 38 39 41 42 43 44 44 45
31 28 27 25 25 26 28 28 26 25 25 26 27 25 25 27 26 26 28 27 25 25 26 27 28 28 27 27 27 29 31 33 35 35 35 35 35 37 39 41 42 42 43 43 44 44 45 45 46 48 49 51 53 54
31 30 27 25 25 26 27 27 26 26 25 25 26 25 26 26 28 28 28 28 27 25 25 26 28 30 30 29 29 30 30 30 32 35 38 40 40 40 41 42 43 44 46 48 50 51 52 53 54 55 56 57 59 60
31 29 27 25 24 25 26 26 26 25 23 22 23 25 24 27 26 27 29 28 28 28 27 27 28 29 31 32 32 32 32 32 31 32 33 35 38 42 44 45 45 45 47 48 50 52 54 56 58 59 60 61 63 64
33 30 27 25 23 23 23 23 24 23 21 21 23 25 24 28 26 27 27 28 28 28 28 28 29 30 31 33 34 33 33 34 33 33 33 33 34 36 39 41 43 45 48 49 49 50 52 55 57 58 59 59 60 61
33 31 28 26 24 23 22 22 23 23 23 23 24 24 25 26 29 29 29 29 29 29 30 31 31 30 30 30 33 34 34 34 34 34 34 34 34 36 37 38 39 40 42 44 46 48 50 52 54 55 56 56 56 57
32 30 28 26 25 24 23 22 22 22 22 23 24 23 24 25 27 30 29 29 29 30 31 31 31 31 31 30 31 32 33 34 35 35 35 35 35 36 37 38 39 40 41 42 44 45 46 47 49 50 51 52 52 52
Wind_Direction
235 234 234 237 239 241 243 244 244 246 246 245 247 247 248 247 248 250 253 256 258 261 264 265 268 272 275 276 278 278 278 278 277 277 278 279 281 281 280 279 276 273 272 271 268 268 262 262 267 267 263 264 266 266
231 232 234 235 237 239 242 245 246 246 248 247 248 249 249 250 251 253 256 258 261 263 265 267 270 271 272 274 274 274 275 276 278 278 278 277 276 276 276 275 271 269 268 267 265 262 259 261 261 261 262 262 265 266
236 236 236 238 240 242 244 247 249 249 250 251 252 255 256 257 258 260 261 262 263 264 266 267 269 272 273 273 274 276 277 277 276 276 275 274 274 272 271 270 270 267 265 266 268 264 263 259 256 256 260 264 264 266
239 239 239 240 241 243 245 247 249 251 253 255 258 259 260 261 262 263 264 265 265 267 268 271 274 277 274 273 274 274 275 275 273 274 274 273 272 272 269 266 265 266 269 270 266 266 262 261 259 259 259 260 262 267
236 238 240 242 245 247 250 252 253 254 255 257 257 258 260 261 262 263 264 267 269 271 272 273 272 270 271 272 271 272 274 275 276 275 274 274 274 271 266 264 265 274 279 278 274 268 267 268 267 266 264 266 267 269
234 236 239 242 244 246 248 249 251 251 252 254 256 257 259 261 264 265 267 267 266 266 267 269 269 271 271 273 274 275 277 277 277 277 277 275 268 262 262 264 266 275 273 265 261 261 264 266 265 264 265 264 263 261
235 237 239 241 243 245 246 247 248 251 253 255 257 259 260 260 259 259 260 262 264 266 267 268 269 271 273 275 277 278 280 279 278 278 274 272 272 273 273 270 272 254 249 252 251 252 254 258 261 261 260 261 262 261
243 241 240 239 241 242 245 247 248 249 251 252 253 253 254 256 258 259 261 264 266 268 272 275 277 278 280 280 281 282 280 279 276 274 274 272 271 271 269 268 263 247 251 261 265 266 265 267 265 266 262 260 259 257
248 246 244 244 247 249 248 249 252 251 250 251 253 254 255 258 262 266 268 270 271 272 274 275 277 278 277 277 275 274 274 274 273 273 272 272 271 269 266 263 262 256 256 260 262 261 263 261 259 259 256 253 251 251
246 245 248 250 248 250 252 249 245 246 249 254 256 260 265 268 271 273 272 274 276 275 276 277 277 276 277 278 275 275 273 273 272 274 272 272 270 267 262 258 256 254 254 258 261 261 263 265 261 256 258 261 262 263
293 273 258 251 248 246 244 248 253 258 261 264 269 269 268 270 272 274 274 275 276 278 282 279 276 274 275 276 273 274 280 280 276 269 269 267 264 263 266 266 257 252 249 250 255 259 262 262 264 266 266 264 259 256
338 315 291 273 263 260 263 268 271 269 265 264 265 265 265 266 268 271 274 274 275 277 277 273 270 269 268 274 275 274 277 279 278 274 274 274 266 262 259 258 262 261 261 258 253 253 256 257 256 257 255 256 255 253
16 6 344 323 309 296 285 275 269 261 260 262 257 256 258 253 256 255 271 269 274 278 292 281 265 262 268 277 279 274 281 275 276 280 277 272 269 265 261 256 255 256 260 259 252 246 246 243 243 247 250 248 236 226
12 8 6 355 340 323 299 292 272 252 247 247 248 255 271 264 273 272 272 271 275 279 269 271 271 280 278 283 279 265 262 269 263 263 261 269 276 271 260 258 258 255 247 247 242 236 239 237 233 234 225 218 221 221
9 7 358 350 346 339 328 319 303 279 268 268 279 280 282 275 282 288 289 287 293 281 264 244 250 272 285 277 259 256 265 271 268 260 274 271 272 271 268 266 260 259 251 242 234 226 226 224 222 217 204 196 196 193
6 358 358 357 353 343 338 332 332 328 336 315 288 276 271 265 271 280 280 283 288 275 257 249 251 254 247 252 261 265 258 258 263 261 262 267 272 272 275 273 278 267 254 244 238 229 226 222 214 201 193 181 174 169
4 3 354 341 342 346 342 329 315 20 9 335 303 306 260 274 297 285 293 311 291 269 254 262 274 280 275 266 248 249 248 245 243 244 246 254 260 266 268 272 274 271 254 244 236 223 220 216 205 196 190 182 169 160
358 357 353 345 325 313 292 284 274 276 295 313 304 293 310 315 289 288 356 297 279 288 295 285 271 258 257 265 278 269 255 243 229 232 241 254 261 259 261 261 259 254 243 236 227 222 222 215 198 190 180 174 160 149
345 346 341 334 323 312 298 280 277 272 272 286 301 313 309 302 298 306 311 297 288 286 293 293 289 297 282 266 245 239 239 233 222 219 223 226 241 243 239 233 227 222 217 213 206 204 204 196 186 179 171 160 153 153
336 331 326 324 320 313 304 291 282 279 276 278 284 291 292 292 293 295 295 291 285 276 266 265 268 263 257 260 250 238 233 226 214 213 209 205 210 212 211 209 204 205 199 186 175 173 185 179 171 169 163 159 160 167
327 324 321 315 313 310 304 295 290 283 275 270 269 270 273 279 278 277 277 280 278 273 265 261 258 252 247 235 224 226 225 219 216 216 211 197 186 189 191 189 193 192 184 176 164 168 173 172 167 166 168 173 179 187
323 318 315 311 309 302 294 294 292 291 279 271 267 264 258 258 260 263 266 267 267 271 271 268 264 261 257 253 251 248 244 236 227 226 224 215 201 199 189 183 183 177 171 169 167 170 171 173 176 182 188 195 205 216
322 316 313 307 303 299 295 289 287 289 285 276 270 270 264 256 253 251 253 261 262 258 261 264 267 265 263 258 251 246 244 244 245 240 235 231 225 216 208 198 193 186 180 179 180 182 187 195 203 211 219 227 236 245
323 320 310 302 300 295 295 288 284 285 281 277 276 273 272 267 260 256 252 252 258 261 254 249 253 257 258 259 257 252 248 246 244 241 240 239 234 228 224 214 207 208 208 210 214 217 220 227 232 237 243 250 256 261
321 318 308 303 297 291 288 286 281 281 282 281 277 275 274 271 270 266 258 254 254 258 262 262 255 249 251 252 253 254 253 250 246 243 242 239 238 237 234 227 222 222 225 229 231 234 237 240 244 249 253 256 259 261
322 316 310 302 297 292 285 282 282 279 278 277 277 277 273 271 267 264 264 258 257 258 262 263 262 259 254 251 251 251 252 252 250 249 246 242 240 239 237 236 234 235 236 239 242 246 248 250 253 255 256 259 262 264
322 315 309 299 291 289 289 290 288 281 273 270 271 271 273 277 273 264 263 261 253 251 251 252 252 252 254 254 251 250 252 252 252 251 252 250 248 244 240 239 240 241 244 247 250 253 255 257 260 261 262 264 267 269
321 317 313 307 299 293 290 290 288 282 277 276 277 273 269 268 268 268 268 270 267 261 257 256 257 258 259 259 257 255 252 250 250 251 251 252 252 252 252 250 247 245 246 249 252 254 257 260 262 263 265 266 267 270
325 323 321 313 306 300 296 297 294 290 288 284 281 277 270 267 263 262 263 264 264 264 262 261 261 262 260 258 257 256 254 254 253 253 254 254 254 253 254 254 254 254 254 255 256 257 258 260 262 264 266 267 269 271
329 326 323 321 315 308 304 301 298 299 298 292 285 280 278 274 272 269 267 266 264 262 260 258 255 255 257 259 258 259 259 257 254 254 254 253 253 257 259 259 259 258 259 259 260 261 263 264 266 268 270 271 273 275
330 328 325 322 316 309 305 302 300 300 297 290 283 281 277 274 274 269 270 271 273 272 266 260 258 257 257 258 260 260 261 263 262 260 257 256 257 259 260 261 261 263 264 266 267 266 267 267 269 270 272 273 274 276
328 327 326 323 319 314 310 307 302 299 295 291 285 281 278 277 278 279 273 269 265 262 262 262 263 262 260 258 261 263 264 265 265 265 265 263 261 260 261 262 264 265 266 267 268 269 270 272 274 275 277 278 279 279
329 327 325 324 322 318 315 310 305 303 299 295 293 290 286 280 276 275 276 276 274 273 271 270 268 266 266 264 262 262 265 266 267 267 267 267 267 267 267 267 267 268 270 271 272 273 274 275 276 278 279 281 282 283
Height
10050 10058 10063 10069 10077 10084 10089 10097 10104 10108 10113 10120 10124 10128 10134 10136 10139 10143 10144 10147 10148 10145 10141 10138 10142 10141 10141 10136 10135 10130 10126 10118 10118 10120 10113 10105 10103 10099 10097 10097 10095 10087 10086 10085 10086 10090 10092 10076 10084 10084 10080 10085 10089 10091
10040 10045 10052 10056 10062 10068 10074 10080 10086 10090 10094 10098 10104 10109 10113 10115 10117 10122 10124 10124 10123 10119 10115 10116 10116 10119 10115 10113 10109 10103 10099 10095 10094 10091 10089 10087 10082 10081 10078 10076 10072 10069 10068 10068 10071 10072 10071 10071 10073 10072 10067 10076 10073 10080
10029 10034 10040 10045 10050 10055 10060 10064 10069 10073 10078 10082 10085 10088 10091 10094 10096 10099 10101 10100 10099 10096 10093 10094 10095 10094 10092 10087 10083 10079 10074 10074 10071 10070 10070 10069 10066 10062 10061 10058 10053 10049 10051 10056 10059 10055 10059 10058 10060 10059 10058 10059 10062 10064
10021 10026 10030 10035 10040 10044 10048 10052 10056 10059 10061 10064 10068 10070 10073 10074 10075 10077 10078 10077 10076 10075 10070 10072 10075 10074 10068 10063 10062 10059 10057 10056 10054 10053 10053 10051 10050 10048 10045 10041 10037 10033 10040 10046 10045 10043 10045 10045 10047 10050 10050 10049 10049 10051
10015 10019 10022 10026 10029 10032 10035 10039 10042 10045 10047 10050 10052 10053 10054 10055 10058 10060 10060 10059 10058 10055 10053 10055 10056 10053 10050 10047 10045 10043 10042 10041 10039 10038 10037 10035 10035 10034 10028 10026 10023 10028 10034 10035 10032 10033 10033 10033 10038 10036 10036 10037 10039 10039
10010 10013 10015 10017 10020 10023 10026 10028 10030 10033 10035 10036 10038 10040 10042 10043 10044 10044 10044 10043 10043 10041 10040 10040 10039 10037 10035 10033 10031 10029 10028 10027 10025 10024 10023 10022 10021 10018 10016 10016 10015 10024 10025 10019 10018 10020 10021 10021 10023 10024 10024 10025 10026 10027
10005 10006 10008 10010 10012 10014 10016 10018 10020 10021 10024 10026 10028 10030 10031 10031 10031 10031 10031 10030 10029 10028 10027 10026 10025 10024 10022 10021 10019 10018 10016 10015 10014 10013 10012 10011 10010 10010 10011 10009 10013 10012 10009 10006 10006 10008 10008 10009 10011 10013 10013 10014 10015 10016
10000 10001 10003 10004 10005 10007 10009 10011 10013 10014 10016 10017 10018 10019 10019 10019 10018 10019 10019 10019 10018 10017 10016 10014 10014 10013 10012 10011 10010 10009 10008 10007 10006 10005 10004 10003 10001 10001 10002 10001 10002 10002 9999 9999 10000 10001 10002 10003 10004 10004 10006 10005 10005 10005
9997 9997 9998 9998 10000 10001 10002 10003 10005 10005 10006 10007 10008 10009 10009 10009 10009 10010 10010 10010 10008 10008 10007 10006 10005 10005 10004 10004 10003 10002 10001 9999 9998 9998 9997 9996 9995 9995 9995 9995 9994 9994 9993 9993 9994 9994 9995 9996 9997 9996 9997 9998 9997 9998
9994 9994 9994 9995 9995 9996 9997 9998 9998 9998 9999 10000 10001 10001 10002 10002 10002 10003 10002 10002 10002 10001 10000 10000 9999 9999 9998 9998 9997 9996 9995 9994 9993 9992 9991 9991 9990 9991 9990 9989 9989 9989 9989 9988 9989 9989 9989 9989 9989 9989 9989 9990 9991 9992
9993 9992 9992 9992 9992 9992 9992 9992 9993 9994 9995 9995 9996 9996 9996 9996 9997 9997 9996 9997 9997 9996 9995 9994 9993 9992 9992 9992 9991 9990 9989 9989 9989 9988 9987 9987 9987 9987 9987 9986 9985 9985 9985 9985 9984 9984 9984 9984 9984 9984 9984 9985 9986 9986
9992 9992 9991 9990 9989 9989 9989 9989 9990 9990 9991 9991 9991 9992 9992 9992 9992 9992 9992 9992 9991 9991 9990 9989 9989 9988 9987 9987 9987 9986 9985 9985 9985 9984 9984 9984 9984 9983 9983 9982 9982 9983 9982 9982 9981 9981 9981 9981 9980 9980 9980 9981 9982 9983
9992 9991 9990 9989 9988 9987 9987 9987 9987 9987 9988 9988 9988 9989 9989 9988 9988 9988 9988 9988 9988 9986 9986 9986 9985 9984 9984 9984 9984 9984 9983 9982 9982 9982 9982 9981 9981 9980 9980 9979 9979 9979 9979 9979 9979 9979 9979 9979 9978 9978 9979 9980 9980 9980
9993 9991 9989 9988 9987 9986 9986 9986 9986 9986 9986 9986 9986 9986 9986 9986 9986 9985 9985 9985 9984 9983 9983 9983 9983 9983 9982 9982 9983 9982 9981 9981 9980 9980 9979 9979 9978 9978 9977 9977 9976 9976 9976 9976 9976 9976 9977 9977 9977 9977 9978 9979 9979 9979
9994 9992 9991 9990 9988 9987 9986 9985 9985 9984 9984 9984 9984 9984 9984 9984 9983 9983 9983 9982 9982 9981 9981 9980 9980 9980 9980 9980 9979 9979 9978 9978 9978 9977 9976 9976 9975 9975 9975 9974 9974 9974 9974 9974 9974 9974 9975 9975 9975 9976 9976 9977 9978 9979
9996 9993 9991 9990 9988 9987 9986 9984 9983 9983 9983 9983 9982 9983 9983 9982 9982 9982 9981 9980 9980 9980 9979 9978 9977 9977 9977 9977 9977 9977 9976 9976 9975 9974 9973 9973 9973 9973 9972 9972 9973 9973 9973 9973 9973 9973 9973 9973 9974 9974 9975 9976 9977 9979
9997 9994 9991 9989 9988 9986 9985 9985 9984 9984 9984 9983 9983 9982 9982 9981 9981 9980 9979 9978 9978 9978 9976 9975 9974 9974 9974 9974 9974 9973 9973 9972 9971 9971 9970 9970 9970 9970 9970 9970 9970 9971 9972 9971 9971 9971 9971 9972 9973 9974 9975 9976 9978 9981
9996 9993 9991 9989 9987 9986 9985 9984 9984 9983 9982 9982 9982 9981 9980 9980 9980 9979 9977 9977 9975 9975 9973 9973 9972 9971 9970 9971 9972 9972 9970 9970 9968 9968 9968 9967 9967 9967 9968 9968 9968 9968 9969 9969 9970 9970 9971 9971 9973 9974 9975 9977 9980 9982
9996 9993 9990 9988 9986 9985 9984 9983 9982 9981 9980 9980 9979 9979 9979 9979 9979 9977 9976 9975 9974 9973 9971 9971 9970 9969 9969 9969 9968 9969 9969 9968 9967 9966 9966 9965 9965 9966 9966 9966 9966 9967 9967 9968 9968 9969 9970 9972 9973 9975 9977 9979 9981 9983
9996 9993 9991 9988 9985 9982 9981 9979 9978 9977 9976 9976 9976 9976 9976 9976 9976 9975 9974 9973 9972 9971 9971 9969 9969 9968 9968 9968 9967 9967 9966 9965 9964 9964 9964 9963 9963 9963 9964 9965 9966 9966 9966 9966 9967 9968 9970 9972 9973 9975 9978 9980 9983 9985
9993 9990 9987 9985 9983 9980 9978 9976 9975 9974 9972 9972 9972 9972 9972 9972 9972 9971 9970 9969 9969 9969 9969 9968 9967 9966 9966 9966 9965 9965 9964 9964 9964 9963 9963 9962 9962 9963 9963 9964 9965 9965 9966 9966 9967 9968 9970 9972 9974 9976 9979 9981 9983 9985
9989 9986 9982 9980 9978 9975 9973 9971 9970 9969 9968 9967 9966 9966 9966 9966 9966 9966 9964 9964 9965 9965 9964 9964 9963 9963 9963 9963 9963 9962 9962 9962 9962 9962 9962 9962 9962 9962 9962 9963 9964 9965 9966 9967 9968 9969 9971 9973 9975 9977 9978 9980 9981 9982
9984 9981 9977 9974 9971 9969 9968 9966 9964 9963 9962 9961 9960 9959 9960 9959 9959 9959 9958 9957 9958 9959 9959 9959 9959 9959 9959 9959 9959 9958 9958 9958 9959 9959 9960 9960 9961 9961 9961 9962 9963 9964 9966 9967 9968 9969 9971 9973 9974 9975 9976 9977 9978 9979
9978 9975 9971 9968 9965 9963 9960 9960 9957 9956 9955 9954 9954 9953 9952 9952 9953 9952 9951 9951 9951 9951 9952 9953 9953 9953 9953 9953 9953 9953 9953 9953 9953 9954 9955 9956 9957 9957 9958 9959 9960 9962 9963 9964 9965 9966 9968 9969 9970 9971 9972 9972 9972 9972
9970 9967 9963 9960 9958 9956 9953 9951 9950 9949 9947 9946 9945 9945 9945 9944 9944 9944 9944 9944 9944 9944 9944 9944 9945 9946 9946 9946 9946 9947 9947 9947 9947 9948 9948 9949 9951 9952 9953 9954 9955 9956 9957 9959 9960 9961 9961 9962 9963 9963 9964 9964 9964 9963
9961 9957 9954 9951 9948 9945 9944 9943 9942 9940 9939 9937 9936 9936 9935 9935 9936 9937 9935 9935 9936 9935 9935 9935 9935 9936 9937 9938 9938 9938 9939 9939 9940 9940 9941 9941 9943 9944 9945 9946 9948 9948 9949 9950 9951 9952 9953 9954 9954 9954 9954 9954 9954 9953
9952 9947 9943 9941 9938 9935 9933 9932 9931 9931 9930 9928 9927 9926 9926 9926 9927 9927 9924 9925 9926 9925 9925 9925 9925 9925 9925 9926 9927 9928 9929 9930 9931 9931 9932 9932 9933 9934 9934 9936 9937 9938 9939 9940 9941 9942 9943 9943 9944 9943 9943 9943 9942 9941
9942 9937 9934 9931 9929 9926 9923 9921 9921 9920 9919 9918 9917 9918 9918 9917 9916 9915 9914 9915 9916 9917 9916 9916 9915 9915 9916 9916 9917 9917 9917 9917 9918 9919 9920 9921 9922 9923 9924 9925 9925 9926 9927 9928 9929 9930 9930 9930 9930 9930 9930 9929 9928 9927
9934 9930 9927 9923 9920 9917 9914 9912 9911 9909 9909 9908 9907 9908 9908 9906 9905 9904 9904 9904 9904 9906 9906 9906 9906 9905 9905 9905 9905 9905 9905 9905 9905 9907 9908 9908 9909 9909 9910 9911 9912 9913 9914 9914 9915 9915 9915 9915 9914 9913 9912 9912 9910 9909
9927 9923 9919 9915 9912 9909 9906 9904 9902 9901 9900 9899 9898 9897 9898 9896 9895 9895 9893 9893 9893 9893 9894 9894 9893 9893 9892 9892 9892 9892 9893 9893 9893 9893 9894 9894 9895 9895 9896 9897 9897 9898 9898 9898 9899 9899 9899 9898 9897 9896 9895 9894 9893 9891
9919 9916 9912 9908 9905 9902 9899 9897 9894 9893 9892 9890 9888 9887 9888 9885 9885 9884 9884 9883 9883 9883 9882 9882 9881 9881 9881 9880 9880 9880 9880 9880 9882 9881 9881 9882 9882 9882 9882 9882 9883 9883 9883 9883 9883 9883 9882 9880 9879 9878 9877 9876 9875 9873
9913 9908 9904 9901 9898 9895 9891 9889 9886 9884 9883 9881 9879 9877 9876 9876 9874 9873 9872 9871 9870 9870 9870 9870 9870 9869 9870 9870 9869 9868 9868 9868 9869 9869 9869 9869 9869 9869 9869 9869 9869 9869 9868 9868 9867 9866 9865 9863 9862 9860 9859 9857 9856 9854
9907 9902 9898 9894 9891 9887 9884 9881 9878 9877 9874 9872 9870 9869 9867 9866 9863 9861 9860 9860 9860 9859 9858 9858 9858 9858 9857 9858 9858 9857 9856 9856 9856 9856 9855 9855 9856 9856 9856 9855 9855 9854 9853 9853 9851 9850 9849 9847 9846 9844 9842 9840 9838 9836